This is the latest recevied weather packets stored in our database for station/object SP6KBU-12. If no packets are shown the sender has not sent any weather packets the latest 10 day(s).
| Time | Temp. | Humidity | Pressure | Rain* | Wind** | Luminosity | Snow |
|---|---|---|---|---|---|---|---|
| 1787675947 | 12.78° C | 76% | 1021.2 hPa | - | - | - | - |
| 1787675048 | 12.78° C | 76% | 1021.2 hPa | - | - | - | - |
| 1787674148 | 12.78° C | 75% | 1021.2 hPa | - | - | - | - |
| 1787673247 | 13.33° C | 73% | 1021.4 hPa | - | - | - | - |
| 1787672347 | 13.33° C | 73% | 1021.2 hPa | - | - | - | - |
| 1787671447 | 13.89° C | 72% | 1021.3 hPa | - | - | - | - |
| 1787670577 | 13.89° C | 71% | 1021.2 hPa | - | - | - | - |
| 1787670546 | 13.89° C | 71% | 1021.2 hPa | - | - | - | - |
| 1787669646 | 13.89° C | 72% | 1021.2 hPa | - | - | - | - |
| 1787668746 | 13.89° C | 71% | 1021.1 hPa | - | - | - | - |
| 1787667845 | 14.44° C | 70% | 1020.8 hPa | - | - | - | - |
| 1787667048 | 14.44° C | 67% | 1020.8 hPa | - | - | - | - |
| 1787666945 | 14.44° C | 67% | 1020.8 hPa | - | - | - | - |
| 1787666045 | 15° C | 65% | 1020.6 hPa | - | - | - | - |
| 1787665145 | 15.56° C | 63% | 1020.5 hPa | - | - | - | - |
| 1787664244 | 15.56° C | 61% | 1020.2 hPa | - | - | - | - |
| 1787663344 | 15.56° C | 62% | 1020.3 hPa | - | - | - | - |
| 1787662443 | 16.11° C | 61% | 1020.2 hPa | - | - | - | - |
| 1787661576 | 16.67° C | 58% | 1020.4 hPa | - | - | - | - |
| 1787661543 | 16.67° C | 58% | 1020.4 hPa | - | - | - | - |
| 1787660643 | 17.22° C | 56% | 1020.4 hPa | - | - | - | - |
| 1787659775 | 17.22° C | 55% | 1020.1 hPa | - | - | - | - |
| 1787659742 | 17.22° C | 55% | 1020.1 hPa | - | - | - | - |
| 1787658842 | 17.22° C | 53% | 1020.3 hPa | - | - | - | - |
| 1787657942 | 17.78° C | 54% | 1020.5 hPa | - | - | - | - |
* Rain since midnight (hover to see other rain measurements)
** Current wind speed in m/s (hover to see current wind gust speed)